Location: Olomouc
(49.5830°N, 17.2500°E)
Time: 19:52:53
(UTC+02:00)

ISS - Pass Details

Date: 14 May 2021
Orbit: 417 x 422 km, 51.6° (Epoch: 14 June)

Event Time Altitude Azimuth Distance (km) Brightness Sun altitude
Exits shadow 02:50:28 - 287° (WNW) 2,195 -0.2 -16.5°
Reaches altitude 10° 02:52:08 10° 288° (WNW) 1,508 -1.1 -16.4°
Maximum altitude 02:55:32 87° 16° (NNE) 428 -3.8 -16.1°
Drops below altitude 10° 02:58:55 10° 107° (ESE) 1,506 -0.8 -15.8°
Sets 03:01:01 0° 108° (ESE) 2,370 0.3 -15.6°
